Weather History for Philip, SD

Change the Weather History Date:

Thursday, December 22, 2011

  Actual Average Record
Temperature  
Mean Temperature 19 °F 22 °F  
Max Temperature 30 °F 34 °F 61 °F (1972)
Min Temperature 8 °F 9 °F -30 °F (1989)
Degree Days  
Heating Degree Days 46 43  
Month to date heating degree days 854 908  
Since 1 July heating degree days 2223 2543  
Cooling Degree Days 0 0  
Month to date cooling degree days 0 0  
Year to date cooling degree days 837 818  
Moisture  
Dew Point 13 °F    
Average Humidity 77    
Maximum Humidity 91    
Minimum Humidity 63    
Precipitation  
Precipitation 0.00 in 0.02 in 0.12 in (1968)
Month to date precipitation 0.09 0.31  
Year to date precipitation 15.89 17.23  
Sea Level Pressure  
Sea Level Pressure 30.42 in    
Wind  
Wind Speed 9 mph (West)    
Max Wind Speed 17 mph    
Max Gust Speed 21 mph    
Visibility 10 miles    
Events      
T = Trace of Precipitation, MM = Missing Value Source: NWS Daily Summary

Daily Weather History Graph

Daily Weather History Graph

Search for Another Location

Airport:

Trip Planner

Search our weather history database for the weather conditions in past years. The results will help you decide how hot, cold, wet, or windy it might be!

Date:

Astronomy

Dec. 22, 2011 Rise Set
Actual Time 7:18 AM MST 4:11 PM MST
Civil Twilight 6:45 AM MST 4:44 PM MST
Nautical Twilight 6:08 AM MST 5:21 PM MST
Astronomical Twilight 5:33 AM MST 5:56 PM MST
Moon 5:03 AM MST (12/22) 2:23 PM MST (12/22)
Length of Visible Light 9h 59m
Length of Day
8h 52m
Waning Crescent, 5% of the Moon is Illuminated
Dec 22
Waning Crescent
Dec 24
New
Dec 31
First Quarter
Jan 9
Full
Jan 16
Last Quarter

Hourly Weather History & Observations

Time (MST) Temp. Windchill Dew Point Humidity Pressure Visibility Wind Dir Wind Speed Gust Speed Precip Events Conditions
12:55 AM 19.9 °F 6.2 °F 15.1 °F 81% 30.35 in 10.0 mi NNW 15.0 mph - N/A   Clear
1:55 AM 18.0 °F 4.8 °F 12.9 °F 81% 30.40 in 10.0 mi NNW 12.7 mph - N/A   Clear
2:55 AM 16.0 °F 5.3 °F 10.9 °F 81% 30.43 in 10.0 mi NNW 8.1 mph - N/A   Clear
3:55 AM 12.9 °F 5.2 °F 9.0 °F 84% 30.45 in 10.0 mi West 4.6 mph - N/A   Clear
4:55 AM 10.9 °F 0.2 °F 7.0 °F 84% 30.48 in 10.0 mi West 6.9 mph - N/A   Clear
5:55 AM 9.0 °F -0.9 °F 6.1 °F 88% 30.49 in 10.0 mi WSW 5.8 mph - N/A   Clear
6:55 AM 10.9 °F -2.6 °F 7.0 °F 84% 30.49 in 10.0 mi West 10.4 mph - N/A   Clear
7:55 AM 10.0 °F -1.9 °F 6.1 °F 84% 30.51 in 10.0 mi WSW 8.1 mph - N/A   Clear
8:55 AM 16.0 °F 6.3 °F 10.9 °F 81% 30.50 in 10.0 mi West 6.9 mph - N/A   Clear
9:55 AM 21.9 °F 11.7 °F 16.0 °F 78% 30.50 in 10.0 mi West 9.2 mph - N/A   Clear
10:55 AM 26.1 °F 17.6 °F 19.0 °F 75% 30.48 in 10.0 mi WSW 8.1 mph - N/A   Clear
11:55 AM 28.9 °F 19.2 °F 19.9 °F 69% 30.46 in 10.0 mi WSW 11.5 mph - N/A   Clear
12:55 PM 30.0 °F 20.5 °F 21.0 °F 69% 30.45 in 10.0 mi WSW 11.5 mph - N/A   Clear
1:55 PM 30.0 °F 19.5 °F 19.9 °F 66% 30.44 in 10.0 mi WSW 13.8 mph - N/A   Clear
2:55 PM 28.9 °F 19.2 °F 18.0 °F 64% 30.43 in 10.0 mi WSW 11.5 mph - N/A   Clear
3:55 PM 26.1 °F 16.8 °F 16.0 °F 66% 30.42 in 10.0 mi WSW 9.2 mph - N/A   Clear
4:55 PM 21.0 °F 10.6 °F 14.0 °F 74% 30.42 in 10.0 mi SW 9.2 mph - N/A   Clear
5:55 PM 19.0 °F 9.0 °F 12.9 °F 77% 30.42 in 10.0 mi WSW 8.1 mph - N/A   Clear
6:55 PM 17.1 °F 10.0 °F 12.0 °F 81% 30.40 in 10.0 mi WSW 4.6 mph - N/A   Clear
7:55 PM 17.1 °F 7.6 °F 10.9 °F 77% 30.36 in 10.0 mi WSW 6.9 mph - N/A   Clear
8:55 PM 15.1 °F 5.2 °F 10.0 °F 80% 30.35 in 10.0 mi West 6.9 mph - N/A   Clear
9:55 PM 17.1 °F 5.8 °F 12.0 °F 81% 30.32 in 10.0 mi West 9.2 mph - N/A   Clear
10:55 PM 18.0 °F 6.9 °F 12.0 °F 78% 30.30 in 10.0 mi West 9.2 mph - N/A   Clear
11:55 PM 17.1 °F 5.0 °F 10.9 °F 77% 30.29 in 10.0 mi West 10.4 mph - N/A   Clear